Location: Airlie Beach - Cannonvale QLD, Australia
(20.2768°S, 148.7558°E)
Time: 16:05:25
(UTC+10:00)

Hubble Space Telescope - Visible Passes

Search period start: 19 May 2026 00:00
Search period end: 29 May 2026 00:00
Orbit: 473 x 476 km, 28.5° (Epoch: 18 May)

Date Brightness Start Highest point End Pass type
(mag) Time Alt. Az. Time Alt. Az. Time Alt. Az.
19 May 1.4 18:45:35 10° W 18:49:07 37° SSW 18:50:10 30° SSE visible
20 May 1.5 18:14:03 10° W 18:17:35 38° SSW 18:20:26 14° SE visible
21 May 2.8 19:23:10 10° SW 19:24:41 18° SW 19:24:41 18° SW visible
22 May 2.1 18:51:36 10° WSW 18:54:40 23° S 18:54:56 22° S visible
23 May 2.1 18:20:03 10° WSW 18:23:06 23° S 18:25:10 15° SE visible
24 May 3.0 19:28:26 10° SW 19:29:28 16° SW 19:29:28 16° SW visible
25 May 1.8 18:56:52 10° SW 18:59:47 28° S 18:59:47 28° S visible
26 May 1.7 18:25:18 10° SW 18:28:37 28° S 18:30:10 21° SE visible
27 May 1.7 17:53:43 10° SW 17:57:02 28° S 18:00:20 10° ESE visible
27 May 2.7 19:33:11 10° WSW 19:34:40 22° WSW 19:34:40 22° WSW visible
28 May 0.4 19:01:36 10° WSW 19:05:16 78° S 19:05:16 78° S visible
